KLM53C EDDM-EHAM

Flight info

Callsign KLM53C
Flight time N/A
Altitude 36000
Route GIVMI1N/26R GIVMI Y101 IBAGA DCT MASEK DCT MAPOX DCT NORKU
Aircraft B789/H-SDE1E2E3FGHIJ2J3J4J5M1RWXY/LB1D1

Departure

Time 2026-05-04 20:20
Airport Munich Airport (EDDM)

Arrival

Time N/A
Airport Amsterdam Airport Schiphol (EHAM)
Time Latitude Longitude Altitude Speed Heading
2026-05-04 19:50 48.35528 11.79713 1462 ft 0 kts 84°
2026-05-04 20:08 48.35526 11.79690 1461 ft 4 kts 82°
2026-05-04 20:09 48.35523 11.79655 1461 ft 3 kts 83°
2026-05-04 20:09 48.35517 11.79617 1461 ft 4 kts 61°
2026-05-04 20:09 48.35500 11.79589 1461 ft 4 kts 22°
2026-05-04 20:09 48.35475 11.79583 1461 ft 4 kts 352°
2026-05-04 20:10 48.35448 11.79591 1461 ft 4 kts 347°
2026-05-04 20:10 48.35437 11.79595 1464 ft 6 kts 353°
2026-05-04 20:12 48.35438 11.79595 1464 ft 0 kts 353°
2026-05-04 20:12 48.35439 11.79594 1465 ft 1 kts 353°
2026-05-04 20:12 48.35462 11.79590 1464 ft 5 kts 353°
2026-05-04 20:13 48.35505 11.79583 1461 ft 8 kts 354°
2026-05-04 20:13 48.35578 11.79571 1473 ft 12 kts 353°
2026-05-04 20:13 48.35671 11.79555 1471 ft 15 kts 353°
2026-05-04 20:13 48.35784 11.79535 1468 ft 18 kts 353°
2026-05-04 20:14 48.35910 11.79512 1462 ft 19 kts 353°
2026-05-04 20:14 48.36042 11.79490 1470 ft 18 kts 353°
2026-05-04 20:14 48.36148 11.79473 1471 ft 11 kts 353°
2026-05-04 20:14 48.36208 11.79516 1464 ft 10 kts 62°
2026-05-04 20:15 48.36225 11.79645 1466 ft 15 kts 82°
2026-05-04 20:15 48.36240 11.79823 1466 ft 19 kts 82°
2026-05-04 20:15 48.36257 11.80032 1473 ft 21 kts 83°
2026-05-04 20:15 48.36275 11.80249 1466 ft 21 kts 84°
2026-05-04 20:16 48.36291 11.80472 1465 ft 22 kts 83°
2026-05-04 20:16 48.36309 11.80699 1463 ft 22 kts 84°
2026-05-04 20:16 48.36326 11.80929 1470 ft 22 kts 83°
2026-05-04 20:16 48.36344 11.81165 1470 ft 23 kts 83°
2026-05-04 20:17 48.36362 11.81404 1469 ft 23 kts 83°
2026-05-04 20:17 48.36381 11.81650 1462 ft 24 kts 83°
2026-05-04 20:17 48.36396 11.81874 1469 ft 20 kts 91°
2026-05-04 20:17 48.36397 11.82077 1464 ft 19 kts 81°
2026-05-04 20:18 48.36434 11.82191 1463 ft 4 kts 15°
2026-05-04 20:18 48.36445 11.82186 1462 ft 3 kts 341°
2026-05-04 20:18 48.36493 11.82160 1462 ft 11 kts 341°
2026-05-04 20:18 48.36575 11.82120 1466 ft 13 kts 342°
2026-05-04 20:19 48.36658 11.82065 1465 ft 13 kts 325°
2026-05-04 20:19 48.36676 11.81961 1466 ft 14 kts 265°
2026-05-04 20:19 48.36647 11.81567 1471 ft 68 kts 263°
2026-05-04 20:19 48.36569 11.80545 1465 ft 129 kts 263°
2026-05-04 20:20 48.36445 11.78987 1699 ft 158 kts 258°
2026-05-04 20:20 48.36288 11.77306 2383 ft 165 kts 263°
2026-05-04 20:20 48.36181 11.75522 3031 ft 176 kts 266°
2026-05-04 20:20 48.36086 11.73558 3620 ft 203 kts 264°
2026-05-04 20:21 48.35914 11.71301 4321 ft 231 kts 262°
2026-05-04 20:21 48.35758 11.68846 5505 ft 235 kts 271°
2026-05-04 20:21 48.37223 11.64083 7343 ft 276 kts 301°
2026-05-04 20:22 48.38281 11.61674 8648 ft 277 kts 300°
2026-05-04 20:22 48.39311 11.59193 9836 ft 282 kts 298°
2026-05-04 20:22 48.40332 11.56635 10924 ft 288 kts 297°
2026-05-04 20:22 48.41378 11.54037 12027 ft 293 kts 298°
2026-05-04 20:23 48.42455 11.51394 13109 ft 298 kts 297°
2026-05-04 20:23 48.43550 11.48704 14136 ft 304 kts 297°
2026-05-04 20:23 48.44670 11.45978 15119 ft 308 kts 301°
2026-05-04 20:23 48.46246 11.43719 16067 ft 320 kts 324°
2026-05-04 20:24 48.48352 11.42401 16515 ft 349 kts 345°
2026-05-04 20:24 48.50842 11.41703 16726 ft 378 kts 348°
2026-05-04 20:24 48.53513 11.41057 17303 ft 392 kts 348°
2026-05-04 20:24 48.56206 11.40349 18277 ft 395 kts 347°
2026-05-04 20:25 48.58922 11.39567 19023 ft 400 kts 346°
2026-05-04 20:25 48.61674 11.38789 19808 ft 404 kts 347°
2026-05-04 20:25 48.64460 11.38034 20546 ft 409 kts 347°
2026-05-04 20:25 48.67280 11.37268 21282 ft 413 kts 347°
2026-05-04 20:26 48.70060 11.36134 21935 ft 414 kts 334°
2026-05-04 20:26 48.72574 11.34006 22596 ft 415 kts 323°
2026-05-04 20:26 48.74992 11.31573 23224 ft 420 kts 323°
2026-05-04 20:26 48.77431 11.29077 23760 ft 425 kts 323°
2026-05-04 20:27 48.79901 11.26560 24322 ft 428 kts 323°
2026-05-04 20:27 48.82384 11.24052 24865 ft 431 kts 323°
2026-05-04 20:27 48.84992 11.21773 25366 ft 437 kts 334°
2026-05-04 20:27 48.87873 11.20187 25822 ft 442 kts 339°
2026-05-04 20:28 48.90801 11.18703 26332 ft 445 kts 339°
2026-05-04 20:28 48.93753 11.17241 26832 ft 448 kts 339°
2026-05-04 20:28 48.96717 11.15741 27301 ft 450 kts 339°
2026-05-04 20:28 48.99697 11.14207 27765 ft 453 kts 339°
2026-05-04 20:29 49.02693 11.12676 28224 ft 456 kts 339°
2026-05-04 20:29 49.05720 11.11141 28670 ft 459 kts 339°
2026-05-04 20:29 49.08757 11.09594 29091 ft 462 kts 339°
2026-05-04 20:29 49.11821 11.08024 29440 ft 466 kts 339°
2026-05-04 20:30 49.14864 11.06467 29820 ft 469 kts 339°
2026-05-04 20:30 49.17976 11.04883 30169 ft 472 kts 339°
2026-05-04 20:30 49.21102 11.03285 30525 ft 474 kts 339°
2026-05-04 20:30 49.24231 11.01671 30981 ft 473 kts 338°
2026-05-04 20:31 49.27342 11.00063 31453 ft 471 kts 338°
2026-05-04 20:31 49.30448 10.98462 31903 ft 470 kts 338°
2026-05-04 20:31 49.33547 10.96863 32365 ft 469 kts 338°
2026-05-04 20:31 49.36636 10.95262 32814 ft 468 kts 337°
2026-05-04 20:32 49.39568 10.93204 33251 ft 461 kts 325°
2026-05-04 20:32 49.42228 10.90472 33631 ft 459 kts 322°
2026-05-04 20:32 49.44847 10.87679 34061 ft 458 kts 322°
2026-05-04 20:32 49.47458 10.84872 34464 ft 457 kts 321°
2026-05-04 20:33 49.50060 10.82083 34857 ft 455 kts 321°
2026-05-04 20:33 49.52667 10.79299 35249 ft 455 kts 321°
2026-05-04 20:33 49.55268 10.76528 35589 ft 454 kts 321°